﻿測定場所 (Monitoring sites),日付 (Measurement date),時間 (Measurement time),線量率 最大値 (max) μGy/h,線量率 最小値 (min) μGy/h,線量率 平均値 (average) μGy/h,
新宿 (Shinjuku),2013-07-28,23:01～24:00,0.0362,0.0331,0.0349,
新宿 (Shinjuku),2013-07-28,22:01～23:00,0.0379,0.0330,0.0351,
新宿 (Shinjuku),2013-07-28,21:01～22:00,0.0372,0.0333,0.0352,
新宿 (Shinjuku),2013-07-28,20:01～21:00,0.0378,0.0335,0.0358,
新宿 (Shinjuku),2013-07-28,19:01～20:00,0.0406,0.0353,0.0372,
新宿 (Shinjuku),2013-07-28,18:01～19:00,0.0397,0.0348,0.0368,
新宿 (Shinjuku),2013-07-28,17:01～18:00,0.0374,0.0332,0.0354,
新宿 (Shinjuku),2013-07-28,16:01～17:00,0.0371,0.0331,0.0352,
新宿 (Shinjuku),2013-07-28,15:01～16:00,0.0377,0.0332,0.0354,
新宿 (Shinjuku),2013-07-28,14:01～15:00,0.0381,0.0333,0.0355,
新宿 (Shinjuku),2013-07-28,13:01～14:00,0.0364,0.0325,0.0351,
新宿 (Shinjuku),2013-07-28,12:01～13:00,0.0382,0.0338,0.0356,
新宿 (Shinjuku),2013-07-28,11:01～12:00,0.0374,0.0340,0.0355,
新宿 (Shinjuku),2013-07-28,10:01～11:00,0.0376,0.0332,0.0355,
新宿 (Shinjuku),2013-07-28,09:01～10:00,0.0373,0.0334,0.0354,
新宿 (Shinjuku),2013-07-28,08:01～09:00,0.0382,0.0337,0.0357,
新宿 (Shinjuku),2013-07-28,07:01～08:00,0.0385,0.0336,0.0356,
新宿 (Shinjuku),2013-07-28,06:01～07:00,0.0387,0.0334,0.0356,
新宿 (Shinjuku),2013-07-28,05:01～06:00,0.0370,0.0330,0.0352,
新宿 (Shinjuku),2013-07-28,04:01～05:00,0.0371,0.0328,0.0355,
新宿 (Shinjuku),2013-07-28,03:01～04:00,0.0370,0.0330,0.0351,
新宿 (Shinjuku),2013-07-28,02:01～03:00,0.0373,0.0321,0.0353,
新宿 (Shinjuku),2013-07-28,01:01～02:00,0.0373,0.0330,0.0352,
新宿 (Shinjuku),2013-07-28,00:01～01:00,0.0390,0.0349,0.0362,
新宿 (Shinjuku),2013-07-27,23:01～24:00,0.0408,0.0351,0.0371,
新宿 (Shinjuku),2013-07-27,22:01～23:00,0.0469,0.0371,0.0409,
新宿 (Shinjuku),2013-07-27,21:01～22:00,0.0497,0.0417,0.0450,
新宿 (Shinjuku),2013-07-27,20:01～21:00,0.0493,0.0409,0.0448,
新宿 (Shinjuku),2013-07-27,19:01～20:00,0.0482,0.0332,0.0380,
新宿 (Shinjuku),2013-07-27,18:01～19:00,0.0363,0.0327,0.0346,
新宿 (Shinjuku),2013-07-27,17:01～18:00,0.0365,0.0324,0.0350,
新宿 (Shinjuku),2013-07-27,16:01～17:00,0.0371,0.0331,0.0350,
新宿 (Shinjuku),2013-07-27,15:01～16:00,0.0371,0.0334,0.0352,
新宿 (Shinjuku),2013-07-27,14:01～15:00,0.0383,0.0330,0.0353,
新宿 (Shinjuku),2013-07-27,13:01～14:00,0.0386,0.0331,0.0351,
新宿 (Shinjuku),2013-07-27,12:01～13:00,0.0370,0.0335,0.0353,
新宿 (Shinjuku),2013-07-27,11:01～12:00,0.0372,0.0326,0.0353,
新宿 (Shinjuku),2013-07-27,10:01～11:00,0.0374,0.0330,0.0353,
新宿 (Shinjuku),2013-07-27,09:01～10:00,0.0372,0.0332,0.0355,
新宿 (Shinjuku),2013-07-27,08:01～09:00,0.0377,0.0333,0.0356,
新宿 (Shinjuku),2013-07-27,07:01～08:00,0.0380,0.0338,0.0352,
新宿 (Shinjuku),2013-07-27,06:01～07:00,0.0371,0.0333,0.0351,
新宿 (Shinjuku),2013-07-27,05:01～06:00,0.0376,0.0330,0.0352,
新宿 (Shinjuku),2013-07-27,04:01～05:00,0.0371,0.0331,0.0350,
新宿 (Shinjuku),2013-07-27,03:01～04:00,0.0370,0.0320,0.0349,
新宿 (Shinjuku),2013-07-27,02:01～03:00,0.0367,0.0332,0.0346,
新宿 (Shinjuku),2013-07-27,01:01～02:00,0.0364,0.0322,0.0348,
新宿 (Shinjuku),2013-07-27,00:01～01:00,0.0385,0.0325,0.0349,
新宿 (Shinjuku),2013-07-26,23:01～24:00,0.0366,0.0326,0.0348,
新宿 (Shinjuku),2013-07-26,22:01～23:00,0.0371,0.0332,0.0350,
新宿 (Shinjuku),2013-07-26,21:01～22:00,0.0363,0.0329,0.0346,
新宿 (Shinjuku),2013-07-26,20:01～21:00,0.0362,0.0327,0.0348,
新宿 (Shinjuku),2013-07-26,19:01～20:00,0.0364,0.0326,0.0345,
新宿 (Shinjuku),2013-07-26,18:01～19:00,0.0360,0.0332,0.0345,
新宿 (Shinjuku),2013-07-26,17:01～18:00,0.0377,0.0333,0.0349,
新宿 (Shinjuku),2013-07-26,16:01～17:00,0.0365,0.0331,0.0347,
新宿 (Shinjuku),2013-07-26,15:01～16:00,0.0368,0.0329,0.0348,
新宿 (Shinjuku),2013-07-26,14:01～15:00,0.0368,0.0333,0.0349,
新宿 (Shinjuku),2013-07-26,13:01～14:00,0.0373,0.0330,0.0353,
新宿 (Shinjuku),2013-07-26,12:01～13:00,0.0370,0.0334,0.0350,
新宿 (Shinjuku),2013-07-26,11:01～12:00,0.0378,0.0326,0.0352,
新宿 (Shinjuku),2013-07-26,10:01～11:00,0.0376,0.0330,0.0354,
新宿 (Shinjuku),2013-07-26,09:01～10:00,0.0369,0.0331,0.0351,
新宿 (Shinjuku),2013-07-26,08:01～09:00,0.0370,0.0322,0.0348,
新宿 (Shinjuku),2013-07-26,07:01～08:00,0.0366,0.0328,0.0350,
新宿 (Shinjuku),2013-07-26,06:01～07:00,0.0368,0.0324,0.0348,
新宿 (Shinjuku),2013-07-26,05:01～06:00,0.0371,0.0331,0.0351,
新宿 (Shinjuku),2013-07-26,04:01～05:00,0.0371,0.0330,0.0348,
新宿 (Shinjuku),2013-07-26,03:01～04:00,0.0366,0.0332,0.0351,
新宿 (Shinjuku),2013-07-26,02:01～03:00,0.0371,0.0329,0.0350,
新宿 (Shinjuku),2013-07-26,01:01～02:00,0.0370,0.0335,0.0351,
新宿 (Shinjuku),2013-07-26,00:01～01:00,0.0370,0.0334,0.0350,
新宿 (Shinjuku),2013-07-25,23:01～24:00,0.0368,0.0334,0.0350,
新宿 (Shinjuku),2013-07-25,22:01～23:00,0.0368,0.0325,0.0351,
新宿 (Shinjuku),2013-07-25,21:01～22:00,0.0365,0.0333,0.0350,
新宿 (Shinjuku),2013-07-25,20:01～21:00,0.0368,0.0321,0.0348,
新宿 (Shinjuku),2013-07-25,19:01～20:00,0.0373,0.0330,0.0351,
新宿 (Shinjuku),2013-07-25,18:01～19:00,0.0369,0.0335,0.0350,
新宿 (Shinjuku),2013-07-25,17:01～18:00,0.0373,0.0332,0.0348,
新宿 (Shinjuku),2013-07-25,16:01～17:00,0.0366,0.0327,0.0353,
新宿 (Shinjuku),2013-07-25,15:01～16:00,0.0371,0.0335,0.0352,
新宿 (Shinjuku),2013-07-25,14:01～15:00,0.0363,0.0328,0.0349,
新宿 (Shinjuku),2013-07-23,10:01～11:00,0.0478,0.0434,0.0457,
新宿 (Shinjuku),2013-07-23,09:01～10:00,0.0492,0.0423,0.0456,
新宿 (Shinjuku),2013-07-23,08:01～09:00,0.0490,0.0422,0.0458,
新宿 (Shinjuku),2013-07-23,07:01～08:00,0.0486,0.0407,0.0453,
新宿 (Shinjuku),2013-07-23,06:01～07:00,0.0482,0.0420,0.0453,
新宿 (Shinjuku),2013-07-23,05:01～06:00,0.0483,0.0416,0.0452,
新宿 (Shinjuku),2013-07-23,04:01～05:00,0.0486,0.0416,0.0454,
新宿 (Shinjuku),2013-07-23,03:01～04:00,0.0483,0.0419,0.0449,
新宿 (Shinjuku),2013-07-23,02:01～03:00,0.0482,0.0407,0.0448,
新宿 (Shinjuku),2013-07-23,01:01～02:00,0.0484,0.0409,0.0448,
新宿 (Shinjuku),2013-07-23,00:01～01:00,0.0489,0.0420,0.0450,
新宿 (Shinjuku),2013-07-22,23:01～24:00,0.0486,0.0407,0.0449,
新宿 (Shinjuku),2013-07-22,22:01～23:00,0.0485,0.0410,0.0449,
新宿 (Shinjuku),2013-07-22,21:01～22:00,0.0485,0.0412,0.0451,
新宿 (Shinjuku),2013-07-22,20:01～21:00,0.0519,0.0436,0.0477,
新宿 (Shinjuku),2013-07-22,19:01～20:00,0.0532,0.0438,0.0487,
新宿 (Shinjuku),2013-07-22,18:01～19:00,0.0481,0.0415,0.0446,
新宿 (Shinjuku),2013-07-22,17:01～18:00,0.0477,0.0412,0.0444,
新宿 (Shinjuku),2013-07-22,16:01～17:00,0.0481,0.0410,0.0445,
新宿 (Shinjuku),2013-07-22,15:01～16:00,0.0484,0.0414,0.0447,
新宿 (Shinjuku),2013-07-22,14:01～15:00,0.0491,0.0408,0.0448,
新宿 (Shinjuku),2013-07-22,13:01～14:00,0.0479,0.0411,0.0449,
新宿 (Shinjuku),2013-07-22,12:01～13:00,0.0485,0.0422,0.0454,
新宿 (Shinjuku),2013-07-22,11:01～12:00,0.0494,0.0422,0.0451,
新宿 (Shinjuku),2013-07-22,10:01～11:00,0.0490,0.0409,0.0457,
新宿 (Shinjuku),2013-07-22,09:01～10:00,0.0488,0.0421,0.0450,
新宿 (Shinjuku),2013-07-22,08:01～09:00,0.0481,0.0423,0.0450,
新宿 (Shinjuku),2013-07-22,07:01～08:00,0.0487,0.0402,0.0450,
新宿 (Shinjuku),2013-07-22,06:01～07:00,0.0471,0.0423,0.0447,
新宿 (Shinjuku),2013-07-22,05:01～06:00,0.0473,0.0411,0.0446,
新宿 (Shinjuku),2013-07-22,04:01～05:00,0.0473,0.0411,0.0443,
新宿 (Shinjuku),2013-07-22,03:01～04:00,0.0481,0.0421,0.0443,
新宿 (Shinjuku),2013-07-22,02:01～03:00,0.0477,0.0405,0.0445,
新宿 (Shinjuku),2013-07-22,01:01～02:00,0.0472,0.0417,0.0445,
新宿 (Shinjuku),2013-07-22,00:01～01:00,0.0475,0.0418,0.0443,
